| time (UTC) | temp C | wind direction | speed KPH | gust KPH | rain 1hr cm | rain 24hr cm | rain mn cm | humidity % | barometer mb |
| 20260504081540 | 16 | 161 | 0.0 | 1.6 | 0.00 | 0.00 | 0.00 | 89 | 1016.7 |
| 20260504060120 | 18 | 127 | 1.6 | 9.7 | 0.00 | 0.00 | 0.00 | 83 | 1018.6 |
| 20260504050013 | 18 | 167 | 3.2 | 8.0 | 0.00 | 0.00 | 0.00 | 82 | 1018.9 |
| 20260504044519 | 18 | 175 | 1.6 | 6.4 | 0.00 | 0.00 | 0.00 | 81 | 1018.9 |
| 20260504043013 | 19 | 163 | 1.6 | 8.0 | 0.00 | 0.00 | 0.00 | 80 | 1019.0 |
| 20260504041514 | 19 | 188 | 3.2 | 9.7 | 0.00 | 0.00 | 0.00 | 80 | 1019.2 |
| 20260504040013 | 19 | 160 | 3.2 | 9.7 | 0.00 | 0.00 | 0.00 | 79 | 1019.2 |
| 20260504034509 | 19 | 159 | 3.2 | 8.0 | 0.00 | 0.00 | 0.00 | 78 | 1019.2 |
| 20260504033013 | 20 | 157 | 1.6 | 4.8 | 0.00 | 0.00 | 0.00 | 77 | 1019.2 |
| 20260504031509 | 20 | 128 | 1.6 | 11.3 | 0.00 | 0.00 | 0.00 | 75 | 1019.0 |
| 20260504030012 | 20 | 163 | 3.2 | 8.0 | 0.00 | 0.00 | 0.00 | 74 | 1019.0 |
| 20260504024507 | 21 | 136 | 4.8 | 12.9 | 0.00 | 0.00 | 0.00 | 72 | 1018.9 |
| 20260504023007 | 21 | 173 | 3.2 | 11.3 | 0.00 | 0.00 | 0.00 | 70 | 1018.8 |
| 20260504021508 | 21 | 167 | 4.8 | 12.9 | 0.00 | 0.00 | 0.00 | 68 | 1018.8 |
| 20260504020007 | 21 | 161 | 1.6 | 9.7 | 0.00 | 0.00 | 0.00 | 67 | 1018.4 |
| 20260504014506 | 22 | 94 | 1.6 | 9.7 | 0.00 | 0.00 | 0.00 | 65 | 1018.2 |
| 20260504013005 | 22 | 154 | 0.0 | 3.2 | 0.00 | 0.00 | 0.00 | 64 | 1017.9 |
| 20260504011515 | 23 | 155 | 0.0 | 3.2 | 0.00 | 0.00 | 0.00 | 62 | 1017.7 |
| 20260504010004 | 23 | 154 | 0.0 | 3.2 | 0.00 | 0.00 | 0.00 | 61 | 1017.7 |
| 20260504004502 | 24 | 154 | 0.0 | 3.2 | 0.00 | 0.00 | 0.00 | 59 | 1017.9 |
| 20260504003000 | 25 | 155 | 1.6 | 4.8 | 0.00 | 0.00 | 0.00 | 57 | 1018.0 |
| 20260504001608 | 25 | 159 | 1.6 | 8.0 | 0.00 | 0.00 | 0.00 | 55 | 1018.3 |
| 20260504000123 | 26 | 157 | 3.2 | 16.1 | 0.00 | 0.00 | 0.00 | 54 | 1018.4 |
| 20260503233058 | 26 | 159 | 6.4 | 16.1 | 0.00 | 0.00 | 0.00 | 52 | 1018.4 |
| 20260503231556 | 26 | 195 | 4.8 | 17.7 | 0.00 | 0.00 | 0.00 | 53 | 1018.4 |
| 20260503230057 | 26 | 142 | 3.2 | 12.9 | 0.00 | 0.00 | 0.00 | 52 | 1018.4 |
| 20260503224553 | 26 | 183 | 6.4 | 16.1 | 0.00 | 0.00 | 0.00 | 52 | 1018.7 |
| 20260503223052 | 26 | 194 | 6.4 | 16.1 | 0.00 | 0.00 | 0.00 | 52 | 1018.9 |
| 20260503221550 | 27 | 168 | 8.0 | 19.3 | 0.00 | 0.00 | 0.00 | 51 | 1019.2 |
| 20260503220049 | 26 | 223 | 8.0 | 20.9 | 0.00 | 0.00 | 0.00 | 53 | 1019.3 |
| 20260503214548 | 26 | 196 | 11.3 | 22.5 | 0.00 | 0.00 | 0.00 | 54 | 1019.5 |
| 20260503213046 | 27 | 173 | 4.8 | 16.1 | 0.00 | 0.00 | 0.00 | 52 | 1019.7 |
| 20260503211543 | 27 | 180 | 6.4 | 16.1 | 0.00 | 0.00 | 0.00 | 53 | 1020.1 |
| 20260503210040 | 27 | 161 | 3.2 | 11.3 | 0.00 | 0.00 | 0.00 | 55 | 1020.3 |
| 20260503204539 | 26 | 80 | 1.6 | 12.9 | 0.00 | 0.00 | 0.00 | 55 | 1020.7 |
| 20260503203041 | 26 | 165 | 8.0 | 16.1 | 0.00 | 0.00 | 0.00 | 52 | 1021.1 |
| 20260503201533 | 26 | 167 | 6.4 | 16.1 | 0.00 | 0.00 | 0.00 | 54 | 1021.3 |
| 20260503200032 | 26 | 152 | 8.0 | 16.1 | 0.00 | 0.00 | 0.00 | 55 | 1021.5 |
| 20260503194532 | 26 | 158 | 4.8 | 16.1 | 0.00 | 0.00 | 0.00 | 55 | 1021.8 |
| 20260503193026 | 26 | 155 | 9.7 | 19.3 | 0.00 | 0.00 | 0.00 | 55 | 1022.0 |
| 20260503191535 | 26 | 140 | 3.2 | 16.1 | 0.00 | 0.00 | 0.00 | 55 | 1022.1 |
| 20260503190022 | 26 | 92 | 4.8 | 17.7 | 0.00 | 0.00 | 0.00 | 56 | 1022.5 |
| 20260503184522 | 26 | 193 | 8.0 | 14.5 | 0.00 | 0.00 | 0.00 | 56 | 1022.7 |
| 20260503183021 | 26 | 82 | 4.8 | 14.5 | 0.00 | 0.00 | 0.00 | 55 | 1023.0 |
| 20260503181519 | 26 | 99 | 3.2 | 9.7 | 0.00 | 0.00 | 0.00 | 57 | 1023.1 |
| 20260503180017 | 25 | 175 | 4.8 | 17.7 | 0.00 | 0.00 | 0.00 | 56 | 1023.5 |
| 20260503174514 | 25 | 164 | 3.2 | 17.7 | 0.00 | 0.00 | 0.00 | 58 | 1023.7 |
| 20260503173013 | 25 | 149 | 9.7 | 19.3 | 0.00 | 0.00 | 0.00 | 58 | 1024.0 |
| 20260503171511 | 25 | 175 | 3.2 | 14.5 | 0.00 | 0.00 | 0.00 | 62 | 1024.1 |
| 20260503160117 | 22 | 221 | 4.8 | 14.5 | 0.00 | 0.00 | 0.00 | 71 | 1024.8 |